7 * 24
多渠道服务支持
COSMOS 2317(又名GLONASS)是独联体CIS于1995年7月24日发射的格洛纳斯全球导航卫星系统组网卫星。该卫星属于第一代GLONASS导航卫星,采用三轴稳定体制,搭载精密铯原子钟作为频率基准,运行于高度约19100千米、倾角64.8°的中地球轨道,设计寿命5年,为全球用户提供全天候定位、测速与授时服务,助力格洛纳斯系统完成早期星座组网。
俄罗斯(独联体)
(CIS)
| 数据来源 | 国际轨道数据 |
| 星历时间: | 2026-08-30T15:45:55+0800 轨道信息已过期12天 |
| 半长轴: | 25508.057km |
| 偏心率: | 0.0009281 |
| 轨道倾角: | 65.481° |
| 近地点辐角 | 172.055° |
| 升交点赤经 | 200.560° |
| 平近点角 | 0.482° |
| 近地点: | 19106.245km |
| 远地点: | 19153.595km |
| 周期: | 675.734分钟 |
| 每日圈数: | 2.131016 |